Location: Nakusp
(50.2330°N, 117.8000°W)
Time: 02:13:34
(UTC-07:00)

Cosmos 1939 Rocket - Visible Passes

Search period start: 02 September 2014 00:00
Search period end: 12 September 2014 00:00
Orbit: 542 x 593 km, 97.6° (Epoch: 01 September)

Date Brightness Start Highest point End Pass type
(mag) Time Alt. Az. Time Alt. Az. Time Alt. Az.
02 Sep 3.8 20:36:00 14° SE 20:39:08 34° ENE 20:42:54 10° N visible
02 Sep 4.7 22:12:06 18° SW 22:14:15 28° W 22:17:52 10° NW visible
03 Sep 3.7 20:37:22 15° SE 20:40:21 35° ENE 20:44:08 10° N visible
03 Sep 4.7 22:13:28 19° SW 22:15:29 27° W 22:19:04 10° NW visible
04 Sep 3.7 20:38:44 16° SE 20:41:34 36° ENE 20:45:21 10° N visible
04 Sep 4.8 22:14:50 19° SW 22:16:43 26° W 22:20:15 10° NW visible
05 Sep 3.6 20:40:06 17° SE 20:42:46 37° ENE 20:46:35 10° N visible
05 Sep 4.8 22:16:12 20° SW 22:17:56 26° W 22:21:26 10° NW visible
06 Sep 3.6 20:41:28 19° SE 20:43:59 37° ENE 20:47:48 10° N visible
06 Sep 4.9 22:17:34 20° SW 22:19:10 25° W 22:22:37 10° NW visible
07 Sep 3.6 20:42:50 20° SE 20:45:11 38° ENE 20:49:01 10° N visible
07 Sep 4.9 22:18:56 20° SW 22:20:23 24° W 22:23:47 10° NW visible
08 Sep 3.5 20:44:12 22° SE 20:46:23 39° ENE 20:50:14 10° N visible
08 Sep 4.9 22:20:18 20° WSW 22:21:36 24° W 22:24:58 10° NW visible
09 Sep 3.5 20:45:34 24° ESE 20:47:35 40° ENE 20:51:27 10° N visible
09 Sep 4.9 22:21:40 20° WSW 22:22:49 23° W 22:26:08 10° NW visible
10 Sep 3.4 20:46:56 26° ESE 20:48:47 41° ENE 20:52:39 10° N visible
10 Sep 4.9 22:23:02 20° WSW 22:24:02 22° W 22:27:18 10° NW visible
11 Sep 3.4 20:48:18 28° ESE 20:49:59 42° ENE 20:53:52 10° N visible
11 Sep 4.9 22:24:24 20° WSW 22:25:15 22° W 22:28:27 10° NW visible
